This demonstration page uses our WeatherBlox Daily Observations layout. Learn more.

Left ArrowRight Arrow

Hourly Observations for July 22, 2017

Temp ( °F °C ) Dew Point ( °F °C ) Humidity (%) Winds ( mph kmh ) Pressure ( in mb ) Visibility ( mi km ) Precip ( " mm )
12:53 am 00:53 Clear 78 25.6 50 10 37 37 N 5 7 29.88 1012 10 16 0.00 0.00
1:53 am 01:53 Clear 76 24.4 50 10 40 40 N 3 6 29.88 1012 10 16 0.00 0.00
2:53 am 02:53 Clear 74 23.3 51 10.6 45 45 N 6 9 29.88 1012 10 16 0.00 0.00
3:53 am 03:53 Clear 74 23.3 52 11.1 46 46 NNW 6 9 29.87 1012 10 16 0.00 0.00
4:53 am 04:53 Clear 71 21.7 52 11.1 51 51 NNE 5 7 29.86 1011 10 16 0.00 0.00
5:53 am 05:53 Clear 74 23.3 51 10.6 45 45 NNW 3 6 29.86 1011 10 16 0.00 0.00
6:53 am 06:53 Sunny 74 23.3 52 11.1 46 46 NNW 5 7 29.86 1011 10 16 0.00 0.00
7:53 am 07:53 Sunny 86 30 44 6.7 23 23 N 10 17 29.85 1011 10 16 0.00 0.00
8:53 am 08:53 Sunny 90 32.2 42 5.6 19 19 N 12 19 29.85 1011 10 16 0.00 0.00
9:53 am 09:53 Sunny 94 34.4 42 5.6 17 17 N 16 26 29.84 1010 10 16 0.00 0.00
10:53 am 10:53 Sunny 98 36.7 40 4.4 13 13 NNE 17 28 29.83 1010 10 16 0.00 0.00
11:53 am 11:53 Sunny 101 38.3 40 4.4 12 12 N 13 20 29.82 1010 10 16 0.00 0.00
12:53 pm 12:53 Sunny 103 39.4 41 5 12 12 N 7 11 29.80 1009 10 16 0.00 0.00
1:53 pm 13:53 Sunny 106 41.1 40 4.4 10 10 N 8 13 29.78 1009 10 16 0.00 0.00
2:53 pm 14:53 Sunny 106 41.1 38 3.3 10 10 SW 6 9 29.77 1008 10 16 0.00 0.00
3:53 pm 15:53 Sunny 106 41.1 39 3.9 10 10 SSW 8 13 29.75 1008 10 16 0.00 0.00
4:53 pm 16:53 Sunny 106 41.1 41 5 11 11 SW 8 13 29.73 1007 10 16 0.00 0.00
5:53 pm 17:53 Sunny 106 41.1 46 7.8 13 13 S 10 17 29.72 1007 10 16 0.00 0.00
6:53 pm 18:53 Sunny 104 40 46 7.8 14 14 S 12 19 29.72 1006 10 16 0.00 0.00
7:53 pm 19:53 Sunny 96 35.6 57 13.9 27 27 SSE 9 15 29.73 1007 10 16 0.00 0.00
8:53 pm 20:53 Clear 90 32.2 57 13.9 33 33 SSE 5 7 29.74 1007 10 16 0.00 0.00
9:53 pm 21:53 Clear 88 31.1 58 14.4 36 36 ESE 5 7 29.76 1008 10 16 0.00 0.00
10:53 pm 22:53 Clear 86 30 58 14.4 39 39 N 5 7 29.77 1008 10 16 0.00 0.00
11:53 pm 23:53 Clear 81 27.2 59 15 47 47 Calm 29.78 1009 10 16 0.00 0.00

Powered by AerisWeather